Year,Month,Day,Hour,Minute,Value (Times are PST for temperature in C)
2013,05,23,11,35,11.00
2013,05,23,11,36,11.00
2013,05,23,11,37,10.90
2013,05,23,11,38,10.90
2013,05,23,11,39,10.80
2013,05,23,11,41,10.80
2013,05,23,11,42,10.80
2013,05,23,11,43,10.80
2013,05,23,11,46,10.70
2013,05,23,11,47,10.70
2013,05,23,11,48,10.70
2013,05,23,11,49,10.60
2013,05,23,11,50,10.60
2013,05,23,11,51,10.50
2013,05,23,11,52,10.50
2013,05,23,11,53,10.50
2013,05,23,11,54,10.50
2013,05,23,11,55,10.60
2013,05,23,11,56,10.60
2013,05,23,11,57,10.60
2013,05,23,11,58,10.60
2013,05,23,11,59,10.60
2013,05,23,12,00,10.60
2013,05,23,12,01,10.60
2013,05,23,12,02,10.60
2013,05,23,12,03,10.60
2013,05,23,12,04,10.60
2013,05,23,12,05,10.60
2013,05,23,12,06,10.60
2013,05,23,12,07,10.60
2013,05,23,12,08,10.60
2013,05,23,12,09,10.60
2013,05,23,12,10,10.60
2013,05,23,12,11,10.60
2013,05,23,12,12,10.60
2013,05,23,12,13,10.60
2013,05,23,12,14,10.70
2013,05,23,12,15,10.70
2013,05,23,12,16,10.60
2013,05,23,12,17,10.60
2013,05,23,12,18,10.70
2013,05,23,12,19,10.70
2013,05,23,12,20,10.70
2013,05,23,12,21,10.80
2013,05,23,12,22,10.80
2013,05,23,12,23,10.80
2013,05,23,12,24,10.80
2013,05,23,12,25,10.80
2013,05,23,12,26,10.80
2013,05,23,12,27,10.80
2013,05,23,12,28,10.80
2013,05,23,12,29,10.90
2013,05,23,12,30,11.00
2013,05,23,12,31,11.00
2013,05,23,12,32,11.10
2013,05,23,12,33,11.20
2013,05,23,12,34,11.30
2013,05,23,12,35,11.30
2013,05,23,12,36,11.40
2013,05,23,12,37,11.50
2013,05,23,12,38,11.50
2013,05,23,12,39,11.50
2013,05,23,12,40,11.50
2013,05,23,12,41,11.50
2013,05,23,12,42,11.40
2013,05,23,12,43,11.30
2013,05,23,12,44,11.30
2013,05,23,12,45,11.20
2013,05,23,12,46,11.20
2013,05,23,12,47,11.10
2013,05,23,12,48,11.10
2013,05,23,12,49,11.00
2013,05,23,12,50,11.00
2013,05,23,12,51,11.00
2013,05,23,12,52,11.00
2013,05,23,12,53,11.00
2013,05,23,12,54,11.00
2013,05,23,12,55,11.10
2013,05,23,12,56,11.20
2013,05,23,12,57,11.30
2013,05,23,12,58,11.30
2013,05,23,12,59,11.40
2013,05,23,13,00,11.40
2013,05,23,13,01,11.40
2013,05,23,13,02,11.40
2013,05,23,13,03,11.40
2013,05,23,13,04,11.40
2013,05,23,13,05,11.30
2013,05,23,13,06,11.30
2013,05,23,13,07,11.30
2013,05,23,13,08,11.30
2013,05,23,13,09,11.30
2013,05,23,13,10,11.30
2013,05,23,13,11,11.30
2013,05,23,13,12,11.30
2013,05,23,13,13,11.20
2013,05,23,13,14,11.20
2013,05,23,13,15,11.30
2013,05,23,13,16,11.30
2013,05,23,13,17,11.40
2013,05,23,13,18,11.50
2013,05,23,13,19,11.60
2013,05,23,13,20,11.60
2013,05,23,13,21,11.70
2013,05,23,13,22,11.80
2013,05,23,13,23,11.90
2013,05,23,13,24,12.00
2013,05,23,13,25,12.20
2013,05,23,13,26,12.30
2013,05,23,13,27,12.40
2013,05,23,13,28,12.50
2013,05,23,13,29,12.50
2013,05,23,13,30,12.40
2013,05,23,13,31,12.40
2013,05,23,13,32,12.40
2013,05,23,13,33,12.40
2013,05,23,13,34,12.30
2013,05,23,13,35,12.30
2013,05,23,13,36,12.20
2013,05,23,13,37,12.20
2013,05,23,13,38,12.20
2013,05,23,13,39,12.20
2013,05,23,13,40,12.20
2013,05,23,13,41,12.20
2013,05,23,13,42,12.20
2013,05,23,13,43,12.20
2013,05,23,13,44,12.20
2013,05,23,13,45,12.20
2013,05,23,13,46,12.20
2013,05,23,13,47,12.30
2013,05,23,13,48,12.30
2013,05,23,13,49,12.40
2013,05,23,13,50,12.40
2013,05,23,13,51,12.50
2013,05,23,13,52,12.60
2013,05,23,13,53,12.60
2013,05,23,13,54,12.70
2013,05,23,13,55,12.80
2013,05,23,13,56,12.90
2013,05,23,13,57,13.10
2013,05,23,13,58,13.20
2013,05,23,13,59,13.40
2013,05,23,14,00,13.50
2013,05,23,14,01,13.60
2013,05,23,14,02,13.70
2013,05,23,14,03,13.70
2013,05,23,14,04,13.80
2013,05,23,14,05,13.80
2013,05,23,14,06,13.80
2013,05,23,14,07,13.80
2013,05,23,14,08,13.80
2013,05,23,14,09,13.70
2013,05,23,14,10,13.60
2013,05,23,14,11,13.60
2013,05,23,14,12,13.50
2013,05,23,14,13,13.50
2013,05,23,14,14,13.50
2013,05,23,14,15,13.50
2013,05,23,14,16,13.50
2013,05,23,14,17,13.60
2013,05,23,14,18,13.60
2013,05,23,14,19,13.60
2013,05,23,14,20,13.70
2013,05,23,14,21,13.70
2013,05,23,14,22,13.60
2013,05,23,14,23,13.60
2013,05,23,14,24,13.50
2013,05,23,14,25,13.50
2013,05,23,14,26,13.50
2013,05,23,14,27,13.50
2013,05,23,14,28,13.50
2013,05,23,14,29,13.40
2013,05,23,14,30,13.40
2013,05,23,14,31,13.40
2013,05,23,14,32,13.50
2013,05,23,14,33,13.60
2013,05,23,14,34,13.60
2013,05,23,14,35,13.70
2013,05,23,14,36,13.70
2013,05,23,14,37,13.60
2013,05,23,14,38,13.70
2013,05,23,14,39,13.70
2013,05,23,14,40,13.60
2013,05,23,14,41,13.60
2013,05,23,14,42,13.70
2013,05,23,14,43,13.70
2013,05,23,14,44,13.70
2013,05,23,14,45,13.80
2013,05,23,14,46,13.80
2013,05,23,14,47,13.90
2013,05,23,14,48,13.90
2013,05,23,14,49,13.90
2013,05,23,14,50,13.90
2013,05,23,14,51,13.90
2013,05,23,14,52,13.80
2013,05,23,14,53,13.80
2013,05,23,14,54,13.80
2013,05,23,14,55,13.80
2013,05,23,14,56,13.80
2013,05,23,14,57,13.80
2013,05,23,14,58,13.90
2013,05,23,14,59,13.90
2013,05,23,15,00,13.90
2013,05,23,15,01,13.80
2013,05,23,15,02,13.80
2013,05,23,15,03,13.70
2013,05,23,15,04,13.70
2013,05,23,15,05,13.70
2013,05,23,15,06,13.70
2013,05,23,15,07,13.60
2013,05,23,15,08,13.60
2013,05,23,15,09,13.60
2013,05,23,15,10,13.50
2013,05,23,15,11,13.50
2013,05,23,15,12,13.50
2013,05,23,15,13,13.50
2013,05,23,15,14,13.60
2013,05,23,15,15,13.70
2013,05,23,15,16,13.70
2013,05,23,15,17,13.80
2013,05,23,15,18,13.80
2013,05,23,15,19,13.90
2013,05,23,15,20,13.90
2013,05,23,15,21,13.90
2013,05,23,15,22,13.90
2013,05,23,15,23,13.90
2013,05,23,15,24,13.90
2013,05,23,15,25,13.90
2013,05,23,15,26,13.90
2013,05,23,15,27,13.90
2013,05,23,15,28,14.00
2013,05,23,15,29,14.10
2013,05,23,15,30,14.10
2013,05,23,15,31,14.10
2013,05,23,15,32,14.20
2013,05,23,15,33,14.20
2013,05,23,15,34,14.10
2013,05,23,15,35,14.00
2013,05,23,15,36,13.90
2013,05,23,15,37,13.80
2013,05,23,15,38,13.90
2013,05,23,15,39,13.90
2013,05,23,15,40,14.00
2013,05,23,15,41,14.00
2013,05,23,15,42,14.10
2013,05,23,15,43,14.00
2013,05,23,15,44,14.00
2013,05,23,15,45,13.90
2013,05,23,15,46,14.00
2013,05,23,15,47,14.00
2013,05,23,15,48,14.10
2013,05,23,15,49,14.10
2013,05,23,15,50,14.20
2013,05,23,15,51,14.20
2013,05,23,15,52,14.30
2013,05,23,15,53,14.40
2013,05,23,15,54,14.40
2013,05,23,15,55,14.40
2013,05,23,15,56,14.40
2013,05,23,15,57,14.40
2013,05,23,15,58,14.40
2013,05,23,15,59,14.30
2013,05,23,16,00,14.20
2013,05,23,16,01,14.20
2013,05,23,16,02,14.10
2013,05,23,16,03,14.00
2013,05,23,16,04,13.90
2013,05,23,16,05,13.90
2013,05,23,16,06,13.90
2013,05,23,16,07,13.90
2013,05,23,16,08,13.90
2013,05,23,16,09,13.90
2013,05,23,16,10,14.00
2013,05,23,16,11,14.00
2013,05,23,16,12,14.10
2013,05,23,16,13,14.10
2013,05,23,16,14,14.20
2013,05,23,16,15,14.20
2013,05,23,16,16,14.30
2013,05,23,16,17,14.30
2013,05,23,16,18,14.30
2013,05,23,16,19,14.30
2013,05,23,16,20,14.30
2013,05,23,16,21,14.30
2013,05,23,16,22,14.30
2013,05,23,16,23,14.30
2013,05,23,16,24,14.30
2013,05,23,16,25,14.20
2013,05,23,16,26,14.20
2013,05,23,16,27,14.10
2013,05,23,16,28,14.10
2013,05,23,16,29,14.10
2013,05,23,16,30,14.10
2013,05,23,16,31,14.10
2013,05,23,16,32,14.10
2013,05,23,16,33,14.10
2013,05,23,16,34,14.00
2013,05,23,16,35,14.10
2013,05,23,16,36,14.10
2013,05,23,16,37,14.10
2013,05,23,16,38,14.20
2013,05,23,16,39,14.20
2013,05,23,16,40,14.30
2013,05,23,16,41,14.40
2013,05,23,16,42,14.40
2013,05,23,16,43,14.40
2013,05,23,16,44,14.30
2013,05,23,16,45,14.20
2013,05,23,16,46,14.10
2013,05,23,16,47,14.10
2013,05,23,16,48,14.10
2013,05,23,16,49,14.10
2013,05,23,16,50,14.10
2013,05,23,16,51,14.20
2013,05,23,16,52,14.20
2013,05,23,16,53,14.30
2013,05,23,16,54,14.30
2013,05,23,16,55,14.40
2013,05,23,16,56,14.40
2013,05,23,16,57,14.40
2013,05,23,16,58,14.40
2013,05,23,16,59,14.30
2013,05,23,17,00,14.20
2013,05,23,17,01,14.20
2013,05,23,17,02,14.20
2013,05,23,17,03,14.20
2013,05,23,17,04,14.20
2013,05,23,17,05,14.20
2013,05,23,17,06,14.20
2013,05,23,17,07,14.10
2013,05,23,17,08,14.00
2013,05,23,17,09,14.00
2013,05,23,17,10,14.00
2013,05,23,17,11,14.00
2013,05,23,17,12,14.00
2013,05,23,17,13,14.10
2013,05,23,17,14,14.10
2013,05,23,17,15,14.20
2013,05,23,17,16,14.20
2013,05,23,17,17,14.30
2013,05,23,17,18,14.30
2013,05,23,17,19,14.30
2013,05,23,17,20,14.30
2013,05,23,17,21,14.30
2013,05,23,17,22,14.30
2013,05,23,17,23,14.20
2013,05,23,17,24,14.20
2013,05,23,17,25,14.20
2013,05,23,17,26,14.20
2013,05,23,17,27,14.20
2013,05,23,17,28,14.10
2013,05,23,17,29,14.10
2013,05,23,17,30,14.00
2013,05,23,17,31,14.00
2013,05,23,17,32,14.00
2013,05,23,17,33,14.00
2013,05,23,17,34,14.00
2013,05,23,17,35,14.00
2013,05,23,17,36,13.90
2013,05,23,17,37,13.90
2013,05,23,17,38,13.90
2013,05,23,17,39,13.90
2013,05,23,17,40,13.90
2013,05,23,17,41,13.90
2013,05,23,17,42,14.00
2013,05,23,17,43,14.00
2013,05,23,17,44,14.00
2013,05,23,17,45,14.00
2013,05,23,17,46,14.00
2013,05,23,17,47,14.00
2013,05,23,17,48,13.90
2013,05,23,17,49,13.90
2013,05,23,17,50,13.90
2013,05,23,17,51,13.90
2013,05,23,17,52,14.00
2013,05,23,17,53,14.00
2013,05,23,17,54,14.10
2013,05,23,17,55,14.10
2013,05,23,17,56,14.20
2013,05,23,17,57,14.10
2013,05,23,17,58,14.10
2013,05,23,17,59,14.00
2013,05,23,18,00,14.00
2013,05,23,18,01,13.90
2013,05,23,18,02,13.90
2013,05,23,18,03,13.80
2013,05,23,18,04,13.80
2013,05,23,18,05,13.70
2013,05,23,18,06,13.70
2013,05,23,18,07,13.70
2013,05,23,18,08,13.70
2013,05,23,18,09,13.60
2013,05,23,18,10,13.60
2013,05,23,18,11,13.60
2013,05,23,18,12,13.60
2013,05,23,18,13,13.60
2013,05,23,18,14,13.60
2013,05,23,18,15,13.60
2013,05,23,18,16,13.60
2013,05,23,18,17,13.70
2013,05,23,18,18,13.70
2013,05,23,18,19,13.80
2013,05,23,18,20,13.80
2013,05,23,18,21,13.80
2013,05,23,18,22,13.80
2013,05,23,18,23,13.80
2013,05,23,18,24,13.80
2013,05,23,18,25,13.80
2013,05,23,18,26,13.80
2013,05,23,18,27,13.80
2013,05,23,18,28,13.70
2013,05,23,18,29,13.70
2013,05,23,18,30,13.70
2013,05,23,18,31,13.70
2013,05,23,18,32,13.70
2013,05,23,18,33,13.60
2013,05,23,18,34,13.60
2013,05,23,18,35,13.60
2013,05,23,18,36,13.50
2013,05,23,18,37,13.50
2013,05,23,18,38,13.50
2013,05,23,18,39,13.50
2013,05,23,18,40,13.40
2013,05,23,18,41,13.40
2013,05,23,18,42,13.40
2013,05,23,18,43,13.40
2013,05,23,18,44,13.40
2013,05,23,18,45,13.40
2013,05,23,18,46,13.30
2013,05,23,18,47,13.40
2013,05,23,18,48,13.40
2013,05,23,18,49,13.40
2013,05,23,18,50,13.40
2013,05,23,18,51,13.40
2013,05,23,18,52,13.40
2013,05,23,18,53,13.40
2013,05,23,18,54,13.40
2013,05,23,18,55,13.40
2013,05,23,18,56,13.40
2013,05,23,18,57,13.40
2013,05,23,18,58,13.30
2013,05,23,18,59,13.30
2013,05,23,19,00,13.30
2013,05,23,19,01,13.30
2013,05,23,19,02,13.30
2013,05,23,19,03,13.30
2013,05,23,19,04,13.20
2013,05,23,19,05,13.20
2013,05,23,19,06,13.20
2013,05,23,19,07,13.10
2013,05,23,19,08,13.10
2013,05,23,19,09,13.10
2013,05,23,19,10,13.10
2013,05,23,19,11,13.00
2013,05,23,19,12,13.00
2013,05,23,19,13,13.00
2013,05,23,19,14,13.00
2013,05,23,19,15,13.00
2013,05,23,19,16,13.00
2013,05,23,19,17,13.00
2013,05,23,19,18,13.00
2013,05,23,19,19,12.90
2013,05,23,19,20,12.90
2013,05,23,19,21,12.80
2013,05,23,19,22,12.80
2013,05,23,19,23,12.80
2013,05,23,19,24,12.80
2013,05,23,19,25,12.80
2013,05,23,19,26,12.80
2013,05,23,19,27,12.80
2013,05,23,19,28,12.80
2013,05,23,19,29,12.80
2013,05,23,19,30,12.80
2013,05,23,19,31,12.80
2013,05,23,19,32,12.80
2013,05,23,19,33,12.80
2013,05,23,19,34,12.80
2013,05,23,19,35,12.70
2013,05,23,19,36,12.70
2013,05,23,19,37,12.70
2013,05,23,19,38,12.60
2013,05,23,19,39,12.60
2013,05,23,19,40,12.60
2013,05,23,19,41,12.60
2013,05,23,19,42,12.60
2013,05,23,19,43,12.60
2013,05,23,19,44,12.60
2013,05,23,19,45,12.60
2013,05,23,19,46,12.60
2013,05,23,19,47,12.60
2013,05,23,19,48,12.50
2013,05,23,19,49,12.50
2013,05,23,19,50,12.50
2013,05,23,19,51,12.40
2013,05,23,19,52,12.40
2013,05,23,19,53,12.30
2013,05,23,19,54,12.30
2013,05,23,19,55,12.20
2013,05,23,19,56,12.20
2013,05,23,19,57,12.10
2013,05,23,19,58,12.10
2013,05,23,19,59,12.10
2013,05,23,20,00,12.00
2013,05,23,20,01,12.00
2013,05,23,20,02,11.90
2013,05,23,20,03,11.90
2013,05,23,20,04,11.90
2013,05,23,20,05,11.90
2013,05,23,20,06,11.90
2013,05,23,20,07,11.80
2013,05,23,20,08,11.80
2013,05,23,20,09,11.80
2013,05,23,20,10,11.70
2013,05,23,20,11,11.70
2013,05,23,20,12,11.70
2013,05,23,20,13,11.60
2013,05,23,20,14,11.60
2013,05,23,20,15,11.60
2013,05,23,20,16,11.60
2013,05,23,20,17,11.50
2013,05,23,20,18,11.50
2013,05,23,20,19,11.50
2013,05,23,20,20,11.40
2013,05,23,20,21,11.40
2013,05,23,20,22,11.40
2013,05,23,20,23,11.30
2013,05,23,20,24,11.30
2013,05,23,20,25,11.20
2013,05,23,20,26,11.20
2013,05,23,20,27,11.20
2013,05,23,20,28,11.20
2013,05,23,20,29,11.20
2013,05,23,20,30,11.10
2013,05,23,20,31,11.10
2013,05,23,20,32,11.10
2013,05,23,20,33,11.10
2013,05,23,20,34,11.00
2013,05,23,20,35,11.00
2013,05,23,20,36,10.90
2013,05,23,20,37,10.90
2013,05,23,20,38,10.90
2013,05,23,20,39,10.90
2013,05,23,20,40,10.80
2013,05,23,20,41,10.80
2013,05,23,20,42,10.80
2013,05,23,20,43,10.70
2013,05,23,20,44,10.70
2013,05,23,20,45,10.70
2013,05,23,20,46,10.70
2013,05,23,20,47,10.60
2013,05,23,20,48,10.60
2013,05,23,20,49,10.60
2013,05,23,20,50,10.60
2013,05,23,20,51,10.50
2013,05,23,20,52,10.50
2013,05,23,20,53,10.50
2013,05,23,20,54,10.40
2013,05,23,20,55,10.40
2013,05,23,20,56,10.40
2013,05,23,20,57,10.40
2013,05,23,20,58,10.30
2013,05,23,20,59,10.30
2013,05,23,21,00,10.30
2013,05,23,21,01,10.30
2013,05,23,21,02,10.20
2013,05,23,21,03,10.20
2013,05,23,21,04,10.20
2013,05,23,21,05,10.20
2013,05,23,21,06,10.10
2013,05,23,21,07,10.10
2013,05,23,21,08,10.10
2013,05,23,21,09,10.10
2013,05,23,21,10,10.00
2013,05,23,21,11,10.00
2013,05,23,21,12,9.90
2013,05,23,21,13,9.90
2013,05,23,21,14,9.90
2013,05,23,21,15,9.80
2013,05,23,21,16,9.80
2013,05,23,21,17,9.80
2013,05,23,21,18,9.70
2013,05,23,21,19,9.70
2013,05,23,21,20,9.70
2013,05,23,21,21,9.70
2013,05,23,21,22,9.60
2013,05,23,21,23,9.60
2013,05,23,21,24,9.60
2013,05,23,21,25,9.60
2013,05,23,21,26,9.60
2013,05,23,21,27,9.60
2013,05,23,21,28,9.60
2013,05,23,21,29,9.60
2013,05,23,21,30,9.60
2013,05,23,21,31,9.60
2013,05,23,21,32,9.60
2013,05,23,21,33,9.60
2013,05,23,21,34,9.60
2013,05,23,21,35,9.60
2013,05,23,21,36,9.60
2013,05,23,21,37,9.60
2013,05,23,21,38,9.60
2013,05,23,21,39,9.60
2013,05,23,21,40,9.60
2013,05,23,21,41,9.50
2013,05,23,21,42,9.50
2013,05,23,21,43,9.50
2013,05,23,21,44,9.40
2013,05,23,21,45,9.40
2013,05,23,21,46,9.40
2013,05,23,21,47,9.30
2013,05,23,21,48,9.30
2013,05,23,21,49,9.30
2013,05,23,21,50,9.30
2013,05,23,21,51,9.20
2013,05,23,21,52,9.20
2013,05,23,21,53,9.20
2013,05,23,21,54,9.20
2013,05,23,21,55,9.10
2013,05,23,21,56,9.10
2013,05,23,21,57,9.10
2013,05,23,21,58,9.10
2013,05,23,21,59,9.10
2013,05,23,22,00,9.10
2013,05,23,22,01,9.10
2013,05,23,22,02,9.10
2013,05,23,22,03,9.20
2013,05,23,22,04,9.10
2013,05,23,22,05,9.10
2013,05,23,22,06,9.10
2013,05,23,22,07,9.10
2013,05,23,22,08,9.10
2013,05,23,22,09,9.10
2013,05,23,22,10,9.10
2013,05,23,22,11,9.10
2013,05,23,22,12,9.00
2013,05,23,22,13,9.00
2013,05,23,22,14,9.00
2013,05,23,22,15,8.90
2013,05,23,22,16,8.90
2013,05,23,22,17,8.90
2013,05,23,22,18,8.80
2013,05,23,22,19,8.80
2013,05,23,22,20,8.80
2013,05,23,22,21,8.80
2013,05,23,22,22,8.70
2013,05,23,22,23,8.70
2013,05,23,22,24,8.70
2013,05,23,22,25,8.60
2013,05,23,22,26,8.60
2013,05,23,22,27,8.60
2013,05,23,22,28,8.50
2013,05,23,22,29,8.50
2013,05,23,22,30,8.40
2013,05,23,22,31,8.40
2013,05,23,22,32,8.40
2013,05,23,22,33,8.30
2013,05,23,22,34,8.30
2013,05,23,22,35,8.30
2013,05,23,22,36,8.30
2013,05,23,22,37,8.20
2013,05,23,22,38,8.20
2013,05,23,22,39,8.20
2013,05,23,22,40,8.20
2013,05,23,22,41,8.20
2013,05,23,22,42,8.20
2013,05,23,22,43,8.20
2013,05,23,22,44,8.20
2013,05,23,22,45,8.10
2013,05,23,22,46,8.10
2013,05,23,22,47,8.10
2013,05,23,22,48,8.10
2013,05,23,22,49,8.00
2013,05,23,22,50,8.00
2013,05,23,22,51,7.90
2013,05,23,22,52,7.90
2013,05,23,22,53,7.90
2013,05,23,22,54,7.90
2013,05,23,22,55,7.80
2013,05,23,22,56,7.80
2013,05,23,22,57,7.80
2013,05,23,22,58,7.70
2013,05,23,22,59,7.70
2013,05,23,23,00,7.70
2013,05,23,23,01,7.60
2013,05,23,23,02,7.60
2013,05,23,23,03,7.60
2013,05,23,23,04,7.50
2013,05,23,23,05,7.50
2013,05,23,23,06,7.50
2013,05,23,23,07,7.40
2013,05,23,23,08,7.40
2013,05,23,23,09,7.40
2013,05,23,23,10,7.30
2013,05,23,23,11,7.30
2013,05,23,23,12,7.30
2013,05,23,23,13,7.30
2013,05,23,23,14,7.30
2013,05,23,23,15,7.30
2013,05,23,23,16,7.20
2013,05,23,23,17,7.20
2013,05,23,23,18,7.30
2013,05,23,23,19,7.30
2013,05,23,23,20,7.20
2013,05,23,23,21,7.20
2013,05,23,23,22,7.20
2013,05,23,23,23,7.20
2013,05,23,23,24,7.20
2013,05,23,23,25,7.30
2013,05,23,23,26,7.30
2013,05,23,23,27,7.30
2013,05,23,23,28,7.30
2013,05,23,23,29,7.30
2013,05,23,23,30,7.30
2013,05,23,23,31,7.30
2013,05,23,23,32,7.30
2013,05,23,23,33,7.20
2013,05,23,23,34,7.20
2013,05,23,23,35,7.20
2013,05,23,23,36,7.20
2013,05,23,23,37,7.20
2013,05,23,23,38,7.20
2013,05,23,23,39,7.20
2013,05,23,23,40,7.10
2013,05,23,23,41,7.10
2013,05,23,23,42,7.00
2013,05,23,23,43,7.00
2013,05,23,23,44,6.90
2013,05,23,23,45,6.90
2013,05,23,23,46,6.90
2013,05,23,23,47,6.90
2013,05,23,23,48,6.80
2013,05,23,23,49,6.80
2013,05,23,23,50,6.80
2013,05,23,23,51,6.80
2013,05,23,23,52,6.70
2013,05,23,23,53,6.70
2013,05,23,23,54,6.70
2013,05,23,23,55,6.60
2013,05,23,23,56,6.60
2013,05,23,23,57,6.60
2013,05,23,23,58,6.50
2013,05,23,23,59,6.50
